#�ϑ�����,���ϕ���,���ϕ���,�ő啗��,�ő啗����������,�ő�u�ԕ���,�ő�u�ԕ�����������
#(�N����),(m/s)   ,(16����),(m/s)   ,(16����)        ,(m/s)       ,(16����)            
2013/4/24 0:01,2.5,3,2.5,3,3.8,3
2013/4/24 0:02,2.5,3,2.5,3,4.1,2
2013/4/24 0:03,2.6,3,2.6,3,3.9,3
2013/4/24 0:04,2.6,3,2.6,3,4.2,3
2013/4/24 0:05,2.7,3,2.7,3,4.3,4
2013/4/24 0:06,2.8,3,2.8,3,4.3,3
2013/4/24 0:07,2.7,3,2.8,3,4.4,4
2013/4/24 0:08,2.8,3,2.9,3,4.4,2
2013/4/24 0:09,2.8,3,2.8,3,4.2,4
2013/4/24 0:10,2.8,3,2.8,3,3.7,3
2013/4/24 0:11,2.8,3,2.8,3,4.1,3
2013/4/24 0:12,3,3,3,3,5.2,3
2013/4/24 0:13,3,3,3,3,5.1,3
2013/4/24 0:14,3.1,3,3.1,3,4.9,4
2013/4/24 0:15,3.2,3,3.2,3,4.7,3
2013/4/24 0:16,3.1,3,3.2,3,4.3,4
2013/4/24 0:17,3.1,3,3.1,3,3.3,4
2013/4/24 0:18,3,3,3.1,3,4.1,2
2013/4/24 0:19,3,3,3,3,3.9,3
2013/4/24 0:20,2.9,3,3,3,4.2,3
2013/4/24 0:21,2.9,3,2.9,3,3.6,3
2013/4/24 0:22,2.8,3,2.9,3,4.2,3
2013/4/24 0:23,2.7,3,2.7,3,3.6,3
2013/4/24 0:24,2.5,4,2.7,3,3.7,3
2013/4/24 0:25,2.3,3,2.5,3,2.9,3
2013/4/24 0:26,2.3,3,2.3,3,3.6,3
2013/4/24 0:27,2.3,3,2.3,3,2.7,3
2013/4/24 0:28,2.3,3,2.4,3,4.9,3
2013/4/24 0:29,2.4,3,2.5,3,4.4,3
2013/4/24 0:30,2.4,3,2.5,3,3.2,4
2013/4/24 0:31,2.5,3,2.5,3,3.2,4
2013/4/24 0:32,2.5,3,2.5,3,3.5,4
2013/4/24 0:33,2.5,3,2.5,3,3.6,3
2013/4/24 0:34,2.4,3,2.5,3,2.7,4
2013/4/24 0:35,2.5,3,2.5,3,4.2,4
2013/4/24 0:36,2.6,3,2.6,3,4.3,3
2013/4/24 0:37,2.7,3,2.7,3,3.5,4
2013/4/24 0:38,2.6,3,2.7,3,3.8,3
2013/4/24 0:39,2.5,3,2.6,3,3.7,3
2013/4/24 0:40,2.5,3,2.5,3,3.1,3
2013/4/24 0:41,2.4,3,2.5,3,3.2,2
2013/4/24 0:42,2.4,3,2.4,3,4.2,2
2013/4/24 0:43,2.5,3,2.5,3,4.1,3
2013/4/24 0:44,2.5,3,2.5,3,2.9,3
2013/4/24 0:45,2.4,2,2.5,3,4.1,2
2013/4/24 0:46,2.4,2,2.4,3,3.2,2
2013/4/24 0:47,2.4,2,2.4,3,3.5,4
2013/4/24 0:48,2.4,2,2.4,3,3.3,3
2013/4/24 0:49,2.4,3,2.4,3,3.5,3
2013/4/24 0:50,2.4,2,2.4,3,4.8,3
2013/4/24 0:51,2.6,3,2.6,3,5.1,3
2013/4/24 0:52,2.6,3,2.7,3,4.7,4
2013/4/24 0:53,2.6,3,2.6,3,3.8,2
2013/4/24 0:54,2.6,3,2.6,3,3.8,3
2013/4/24 0:55,2.7,3,2.7,3,3.6,3
2013/4/24 0:56,2.7,3,2.7,3,4.3,3
2013/4/24 0:57,2.8,3,2.8,3,4.4,3
2013/4/24 0:58,2.7,3,2.8,3,3.9,3
2013/4/24 0:59,2.6,3,2.7,3,3.9,2
2013/4/24 1:00,2.7,3,2.7,3,4.7,2
2013/4/24 1:01,2.5,3,2.6,3,3.6,3
2013/4/24 1:02,2.4,2,2.5,3,3.9,3
2013/4/24 1:03,2.3,2,2.4,3,2.4,2
2013/4/24 1:04,2.3,2,2.3,3,3.2,3
2013/4/24 1:05,2.3,2,2.3,3,4.4,2
2013/4/24 1:06,2.3,2,2.3,3,4.5,3
2013/4/24 1:07,2.3,2,2.3,3,4.3,2
2013/4/24 1:08,2.4,2,2.4,3,4.4,3
2013/4/24 1:09,2.4,2,2.4,3,4.1,3
2013/4/24 1:10,2.4,3,2.4,3,3.3,3
2013/4/24 1:11,2.5,3,2.5,3,4.1,3
2013/4/24 1:12,2.6,3,2.6,3,4.2,3
2013/4/24 1:13,2.7,3,2.7,3,4.8,4
2013/4/24 1:14,2.8,3,2.8,3,3.9,4
2013/4/24 1:15,2.8,3,2.8,3,4.5,3
2013/4/24 1:16,2.9,3,2.9,3,4.8,2
2013/4/24 1:17,2.9,3,2.9,3,4.3,3
2013/4/24 1:18,2.8,3,2.9,3,3.3,3
2013/4/24 1:19,2.8,3,2.8,3,2.7,3
2013/4/24 1:20,2.8,3,2.9,3,4.2,3
2013/4/24 1:21,2.8,3,2.8,3,3.2,3
2013/4/24 1:22,2.7,3,2.8,3,2.9,2
2013/4/24 1:23,2.6,3,2.7,3,3.3,4
2013/4/24 1:24,2.5,3,2.6,3,3.5,3
2013/4/24 1:25,2.5,3,2.5,3,3.6,4
2013/4/24 1:26,2.4,3,2.5,3,4.5,2
2013/4/24 1:27,2.3,3,2.4,3,4.2,3
2013/4/24 1:28,2.4,3,2.4,3,4.2,3
2013/4/24 1:29,2.6,3,2.6,3,5.1,4
2013/4/24 1:30,2.5,3,2.6,3,4.1,3
2013/4/24 1:31,2.5,3,2.5,3,3.2,2
2013/4/24 1:32,2.7,3,2.7,3,4.7,3
2013/4/24 1:33,2.7,3,2.7,3,3.2,3
2013/4/24 1:34,2.7,3,2.7,3,3.8,3
2013/4/24 1:35,2.6,3,2.7,3,3.6,3
2013/4/24 1:36,2.7,3,2.7,3,4.1,3
2013/4/24 1:37,2.7,3,2.7,3,4.1,3
2013/4/24 1:38,2.6,3,2.7,3,3.7,4
2013/4/24 1:39,2.5,3,2.6,3,5,3
2013/4/24 1:40,2.6,3,2.6,3,4.5,3
2013/4/24 1:41,2.8,3,2.8,3,4.2,4
2013/4/24 1:42,2.8,3,2.8,3,3.9,3
2013/4/24 1:43,2.8,3,2.8,3,3.5,3
2013/4/24 1:44,2.9,3,2.9,3,4.3,2
2013/4/24 1:45,2.9,3,2.9,3,3,3
2013/4/24 1:46,2.8,3,2.9,3,3.2,3
2013/4/24 1:47,2.9,3,2.9,3,4.1,3
2013/4/24 1:48,2.9,3,2.9,3,4.5,2
2013/4/24 1:49,2.9,3,2.9,3,5.1,3
2013/4/24 1:50,2.8,3,2.9,3,3.7,3
2013/4/24 1:51,2.8,3,2.8,3,4.1,3
2013/4/24 1:52,2.6,3,2.8,3,3.7,3
2013/4/24 1:53,2.6,3,2.6,3,3.2,3
2013/4/24 1:54,2.5,3,2.6,3,3.7,3
2013/4/24 1:55,2.6,3,2.6,3,3.9,3
2013/4/24 1:56,2.6,3,2.6,3,3.6,3
2013/4/24 1:57,2.6,3,2.6,3,3.6,3
2013/4/24 1:58,2.6,3,2.6,3,3.1,3
2013/4/24 1:59,2.5,3,2.6,3,3.2,3
2013/4/24 2:00,2.4,3,2.5,3,3.3,3
2013/4/24 2:01,2.4,3,2.4,3,5.1,3
2013/4/24 2:02,2.5,3,2.5,3,3.8,3
2013/4/24 2:03,2.5,3,2.5,3,3.1,2
2013/4/24 2:04,2.5,3,2.5,3,2.4,2
2013/4/24 2:05,2.4,3,2.4,3,2.7,3
2013/4/24 2:06,2.3,3,2.4,3,3.5,3
2013/4/24 2:07,2.2,3,2.3,3,3.6,2
2013/4/24 2:08,2.2,2,2.2,3,3.5,3
2013/4/24 2:09,2.1,2,2.2,3,3.5,3
2013/4/24 2:10,2.1,2,2.1,3,3.7,3
2013/4/24 2:11,2,2,2.1,3,3.6,2
2013/4/24 2:12,1.9,2,2,3,2.4,3
2013/4/24 2:13,1.9,2,1.9,3,3.2,1
2013/4/24 2:14,1.8,2,1.8,3,2.6,3
2013/4/24 2:15,1.8,2,1.9,3,3.1,3
2013/4/24 2:16,1.8,2,1.9,3,2.4,3
2013/4/24 2:17,1.7,2,1.8,3,1.9,1
2013/4/24 2:18,1.6,2,1.7,2,1.8,1
2013/4/24 2:19,1.6,2,1.7,2,2.7,2
2013/4/24 2:20,1.4,2,1.6,2,1.5,2
2013/4/24 2:21,1.4,2,1.4,2,1.8,1
2013/4/24 2:22,1.3,2,1.3,2,1.8,1
2013/4/24 2:23,1.3,2,1.3,2,2.1,2
2013/4/24 2:24,1.3,2,1.3,2,2.2,2
2013/4/24 2:25,1.3,2,1.3,2,2.6,2
2013/4/24 2:26,1.3,2,1.3,2,2.6,2
2013/4/24 2:27,1.3,2,1.3,2,3.1,3
2013/4/24 2:28,1.4,2,1.4,2,3.3,3
2013/4/24 2:29,1.4,2,1.4,2,1.8,2
2013/4/24 2:30,1.5,2,1.5,2,2.9,2
2013/4/24 2:31,1.7,2,1.7,2,3.9,3
2013/4/24 2:32,1.8,2,1.8,2,3.6,3
2013/4/24 2:33,1.9,2,1.9,2,2.9,4
2013/4/24 2:34,2,2,2,2,3.2,3
2013/4/24 2:35,2.1,2,2.1,2,4.1,3
2013/4/24 2:36,2.1,3,2.1,2,3.3,3
2013/4/24 2:37,2.2,3,2.2,3,2.6,4
2013/4/24 2:38,2.3,3,2.3,3,3.5,3
2013/4/24 2:39,2.4,3,2.4,3,3.7,4
2013/4/24 2:40,2.4,3,2.4,3,3.5,3
2013/4/24 2:41,2.4,3,2.4,3,3.8,3
2013/4/24 2:42,2.4,3,2.5,3,3.7,3
2013/4/24 2:43,2.4,3,2.4,3,3.2,3
2013/4/24 2:44,2.4,3,2.4,3,3.5,3
2013/4/24 2:45,2.4,3,2.4,3,4.2,4
2013/4/24 2:46,2.5,3,2.5,3,4.2,3
2013/4/24 2:47,2.5,3,2.5,3,4.4,4
2013/4/24 2:48,2.5,3,2.5,3,3.3,3
2013/4/24 2:49,2.5,3,2.5,3,3.5,3
2013/4/24 2:50,2.6,3,2.6,3,4.2,4
2013/4/24 2:51,2.5,3,2.6,3,2.9,2
2013/4/24 2:52,2.4,3,2.5,3,4.3,3
2013/4/24 2:53,2.5,3,2.5,3,4.3,3
2013/4/24 2:54,2.5,3,2.5,3,3.7,4
2013/4/24 2:55,2.4,3,2.5,3,4.1,3
2013/4/24 2:56,2.5,3,2.5,3,5.1,3
2013/4/24 2:57,2.5,3,2.5,3,4.7,3
2013/4/24 2:58,2.6,3,2.6,3,4.7,4
2013/4/24 2:59,2.7,3,2.7,3,4.2,4
2013/4/24 3:00,2.6,3,2.7,3,4.1,3
2013/4/24 3:01,2.7,3,2.7,3,4.2,5
2013/4/24 3:02,2.8,3,2.8,3,4.7,4
2013/4/24 3:03,2.7,3,2.8,3,3.3,3
2013/4/24 3:04,2.9,3,2.9,3,5,3
2013/4/24 3:05,2.9,3,2.9,3,4.9,4
2013/4/24 3:06,2.9,3,2.9,3,4.5,4
2013/4/24 3:07,3,3,3,3,4.4,3
2013/4/24 3:08,3,3,3,3,5.8,4
2013/4/24 3:09,3,3,3,3,4.8,2
2013/4/24 3:10,3.1,3,3.1,3,4.4,3
2013/4/24 3:11,3.2,3,3.2,3,5.8,5
2013/4/24 3:12,3.2,3,3.2,3,4.8,3
2013/4/24 3:13,3.3,4,3.3,3,5.4,5
2013/4/24 3:14,3.3,4,3.3,3,4.9,5
2013/4/24 3:15,3.3,4,3.3,3,5.6,3
2013/4/24 3:16,3.2,4,3.3,3,5.1,3
2013/4/24 3:17,3.2,4,3.3,3,4.5,3
2013/4/24 3:18,3.3,4,3.3,3,6.4,3
2013/4/24 3:19,3.4,4,3.4,4,5.4,3
2013/4/24 3:20,3.4,4,3.4,4,4.3,3
2013/4/24 3:21,3.3,4,3.4,4,4.8,3
2013/4/24 3:22,3.5,4,3.5,4,7.6,5
2013/4/24 3:23,3.5,4,3.5,4,5.1,4
2013/4/24 3:24,3.4,3,3.5,4,3.8,1
2013/4/24 3:25,3.3,4,3.4,4,3.3,3
2013/4/24 3:26,3.1,3,3.3,4,3.7,3
2013/4/24 3:27,3.1,3,3.1,4,3.9,5
2013/4/24 3:28,3,3,3.1,4,4.4,3
2013/4/24 3:29,3.1,3,3.1,4,4.9,3
2013/4/24 3:30,3,3,3.1,4,4.2,3
2013/4/24 3:31,2.9,3,3,4,3.1,3
2013/4/24 3:32,2.8,3,2.9,4,4.4,3
2013/4/24 3:33,2.7,3,2.8,4,4.9,3
2013/4/24 3:34,2.7,3,2.7,3,4.4,3
2013/4/24 3:35,2.8,3,2.8,4,3.9,4
2013/4/24 3:36,2.9,3,2.9,3,4.4,5
2013/4/24 3:37,3,3,3,3,4.8,3
2013/4/24 3:38,2.8,3,2.9,3,3.7,4
2013/4/24 3:39,2.7,3,2.8,3,4.3,4
2013/4/24 3:40,2.9,3,2.9,3,7,3
2013/4/24 3:41,3.1,3,3.1,3,5.8,5
2013/4/24 3:42,3.1,3,3.1,3,4.2,4
2013/4/24 3:43,3.1,4,3.1,3,4.4,6
2013/4/24 3:44,3.1,4,3.1,3,4.1,3
2013/4/24 3:45,2.9,4,3,3,2.9,3
2013/4/24 3:46,2.9,4,3,3,4.2,4
2013/4/24 3:47,2.9,4,3,3,4.4,4
2013/4/24 3:48,3,4,3,3,3.5,3
2013/4/24 3:49,3,4,3,3,4.1,6
2013/4/24 3:50,2.9,4,3,3,6.2,4
2013/4/24 3:51,2.8,4,2.8,3,5.1,5
2013/4/24 3:52,2.8,4,2.8,3,3.7,4
2013/4/24 3:53,2.6,4,2.8,4,3.7,2
2013/4/24 3:54,2.7,4,2.7,4,4.3,5
2013/4/24 3:55,3,4,3,4,5.1,3
2013/4/24 3:56,3,4,3,4,4.7,3
2013/4/24 3:57,2.9,4,3,4,4.3,3
2013/4/24 3:58,2.9,4,2.9,4,3.9,3
2013/4/24 3:59,3,4,3,4,5.7,4
2013/4/24 4:00,2.9,4,3,4,4.8,4
2013/4/24 4:01,2.9,4,3,4,4.4,4
2013/4/24 4:02,2.9,4,3,4,4.3,5
2013/4/24 4:03,3,4,3,4,3.7,4
2013/4/24 4:04,2.9,4,3,4,4.7,3
2013/4/24 4:05,2.9,4,3,4,5.1,3
2013/4/24 4:06,2.8,4,2.9,4,5,4
2013/4/24 4:07,2.9,4,2.9,4,4.7,3
2013/4/24 4:08,2.9,4,2.9,4,3.3,3
2013/4/24 4:09,2.9,4,2.9,4,4.8,4
2013/4/24 4:10,3,4,3,4,5.8,4
2013/4/24 4:11,2.9,4,3,4,3.8,3
2013/4/24 4:12,2.9,3,3,4,3.7,2
2013/4/24 4:13,2.9,3,3,4,3.7,3
2013/4/24 4:14,3,3,3,4,4.4,3
2013/4/24 4:15,3,3,3,4,5,4
2013/4/24 4:16,3,3,3,4,5.4,4
2013/4/24 4:17,3,3,3,4,3.8,3
2013/4/24 4:18,3.1,3,3.1,3,5.7,3
2013/4/24 4:19,3.1,3,3.1,3,4.1,3
2013/4/24 4:20,3,3,3.1,3,4.3,3
2013/4/24 4:21,3.2,3,3.2,3,6.4,3
2013/4/24 4:22,3.3,3,3.3,3,5.8,3
2013/4/24 4:23,3.4,3,3.4,3,5,3
2013/4/24 4:24,3.4,3,3.4,3,3.7,2
2013/4/24 4:25,3.4,3,3.5,3,5.5,3
2013/4/24 4:26,3.4,3,3.4,3,5.2,2
2013/4/24 4:27,3.5,3,3.5,3,6.8,4
2013/4/24 4:28,3.4,3,3.5,3,5.4,3
2013/4/24 4:29,3.5,3,3.5,3,5.8,3
2013/4/24 4:30,3.5,3,3.5,3,4.4,3
2013/4/24 4:31,3.3,3,3.4,3,5.1,3
2013/4/24 4:32,3.3,3,3.3,3,4.4,3
2013/4/24 4:33,3.3,3,3.3,3,4.7,3
2013/4/24 4:34,3.3,3,3.4,3,4.5,4
2013/4/24 4:35,3.2,3,3.3,3,4.8,2
2013/4/24 4:36,3.2,3,3.3,3,4.9,2
2013/4/24 4:37,3.3,3,3.4,3,5.7,3
2013/4/24 4:38,3.2,3,3.3,3,4.7,2
2013/4/24 4:39,3.3,3,3.3,3,5.1,3
2013/4/24 4:40,3.4,3,3.4,3,4.4,2
2013/4/24 4:41,3.3,3,3.4,3,3.9,3
2013/4/24 4:42,3.2,3,3.3,3,4.8,3
2013/4/24 4:43,3.2,3,3.3,3,4.4,3
2013/4/24 4:44,3.4,3,3.4,3,7,3
2013/4/24 4:45,3.4,3,3.4,3,4.5,2
2013/4/24 4:46,3.3,3,3.4,3,4.2,2
2013/4/24 4:47,3.2,3,3.3,3,4.5,3
2013/4/24 4:48,3.1,3,3.2,3,3.1,5
2013/4/24 4:49,2.9,3,3.1,3,2.9,3
2013/4/24 4:50,2.8,3,2.9,3,4.4,4
2013/4/24 4:51,2.9,3,2.9,3,5.5,3
2013/4/24 4:52,2.9,3,2.9,3,4.1,3
2013/4/24 4:53,3,3,3,3,6.7,3
2013/4/24 4:54,3.1,3,3.1,3,6.7,4
2013/4/24 4:55,3.3,3,3.3,3,6.8,4
2013/4/24 4:56,3.4,3,3.4,3,6.5,3
2013/4/24 4:57,3.5,3,3.5,3,5.7,5
2013/4/24 4:58,3.7,3,3.7,3,6.5,3
2013/4/24 4:59,3.8,3,3.8,3,5,3
2013/4/24 5:00,3.9,3,3.9,3,4.8,3
2013/4/24 5:01,3.9,3,3.9,3,4.8,3
2013/4/24 5:02,4,3,4,3,6.4,4
2013/4/24 5:03,3.9,3,4,3,5.6,3
2013/4/24 5:04,3.9,3,3.9,3,7.4,4
2013/4/24 5:05,3.8,3,3.9,3,5.6,4
2013/4/24 5:06,3.8,3,3.8,3,6.5,3
2013/4/24 5:07,3.7,3,3.8,3,4.3,2
2013/4/24 5:08,3.6,3,3.7,3,4.1,4
2013/4/24 5:09,3.6,3,3.6,3,5.7,4
2013/4/24 5:10,3.6,3,3.7,3,5.2,3
2013/4/24 5:11,3.6,3,3.6,3,4.5,3
2013/4/24 5:12,3.5,3,3.6,3,3.5,2
2013/4/24 5:13,3.3,3,3.5,3,3.3,4
2013/4/24 5:14,3.1,3,3.3,3,3.7,3
2013/4/24 5:15,2.9,3,3.1,3,3.6,1
2013/4/24 5:16,2.7,3,2.9,3,3,3
2013/4/24 5:17,2.6,3,2.8,3,2.9,2
2013/4/24 5:18,2.6,3,2.6,3,3.3,2
2013/4/24 5:19,2.5,3,2.5,3,3.7,3
2013/4/24 5:20,2.3,2,2.4,3,3.3,3
2013/4/24 5:21,2.2,2,2.3,3,4.4,3
2013/4/24 5:22,2.3,2,2.3,3,5.4,3
2013/4/24 5:23,2.4,2,2.4,3,5,4
2013/4/24 5:24,2.4,2,2.4,3,4.2,3
2013/4/24 5:25,2.5,3,2.5,3,4.3,3
2013/4/24 5:26,2.4,3,2.5,3,3.2,2
2013/4/24 5:27,2.4,3,2.4,3,2.9,2
2013/4/24 5:28,2.5,3,2.5,3,4.3,3
2013/4/24 5:29,2.5,3,2.5,3,4.9,3
2013/4/24 5:30,2.6,3,2.6,3,3.2,3
2013/4/24 5:31,2.5,3,2.6,3,2.7,2
2013/4/24 5:32,2.4,3,2.5,3,3,2
2013/4/24 5:33,2.4,3,2.4,3,5.5,4
2013/4/24 5:34,2.5,3,2.5,3,3.9,3
2013/4/24 5:35,2.5,2,2.5,3,5.2,4
2013/4/24 5:36,2.6,3,2.6,3,4.7,3
2013/4/24 5:37,2.8,3,2.8,3,4.3,3
2013/4/24 5:38,2.8,3,2.9,3,3.7,3
2013/4/24 5:39,2.8,3,2.8,3,4.1,3
2013/4/24 5:40,2.9,3,2.9,3,4.2,3
2013/4/24 5:41,2.9,3,2.9,3,3.9,3
2013/4/24 5:42,3.1,3,3.1,3,5,3
2013/4/24 5:43,3.1,3,3.1,3,5.2,3
2013/4/24 5:44,3.3,3,3.3,3,5.7,3
2013/4/24 5:45,3.3,3,3.3,3,4.7,3
2013/4/24 5:46,3.4,3,3.4,3,5.2,3
2013/4/24 5:47,3.3,3,3.4,3,5.6,3
2013/4/24 5:48,3.3,3,3.3,3,4.1,3
2013/4/24 5:49,3.4,3,3.4,3,5.5,3
2013/4/24 5:50,3.4,3,3.4,3,5,3
2013/4/24 5:51,3.6,3,3.6,3,5.8,2
2013/4/24 5:52,3.5,3,3.6,3,5.2,3
2013/4/24 5:53,3.5,3,3.6,3,6,3
2013/4/24 5:54,3.4,3,3.5,3,5.1,2
2013/4/24 5:55,3.4,2,3.4,3,4.5,4
2013/4/24 5:56,3.2,2,3.3,3,3.5,2
2013/4/24 5:57,3.1,2,3.2,3,4.4,4
2013/4/24 5:58,3.3,2,3.3,3,5.2,3
2013/4/24 5:59,3.3,2,3.3,3,4.7,3
2013/4/24 6:00,3.2,2,3.3,3,4.7,1
2013/4/24 6:01,3.2,2,3.2,3,5.5,3
2013/4/24 6:02,3.3,2,3.3,3,6.5,2
2013/4/24 6:03,3.4,2,3.4,3,5.8,2
2013/4/24 6:04,3.4,2,3.5,2,5.4,3
2013/4/24 6:05,3.4,2,3.4,2,4.5,2
2013/4/24 6:06,3.6,2,3.6,2,6.1,2
2013/4/24 6:07,3.8,2,3.8,2,5.6,3
2013/4/24 6:08,3.9,2,3.9,2,6.1,3
2013/4/24 6:09,3.9,3,3.9,2,5.6,3
2013/4/24 6:10,3.9,3,3.9,2,4.7,2
2013/4/24 6:11,3.8,3,3.9,2,4.4,3
2013/4/24 6:12,3.7,3,3.8,2,4.2,3
2013/4/24 6:13,3.5,3,3.7,2,3.9,3
2013/4/24 6:14,3.4,3,3.5,2,5,3
2013/4/24 6:15,3.5,3,3.5,2,5.1,3
2013/4/24 6:16,3.4,3,3.5,2,4.7,3
2013/4/24 6:17,3.2,3,3.4,2,3.9,3
2013/4/24 6:18,3.1,3,3.2,2,4.3,3
2013/4/24 6:19,2.9,3,3.1,2,3.7,3
2013/4/24 6:20,3.1,3,3.1,3,4.8,3
2013/4/24 6:21,3.1,3,3.1,3,4.4,2
2013/4/24 6:22,3.2,3,3.2,3,4.9,2
2013/4/24 6:23,3.3,3,3.3,3,5.1,2
2013/4/24 6:24,3.3,3,3.3,3,5,3
2013/4/24 6:25,3.2,3,3.3,3,4.7,3
2013/4/24 6:26,3.2,3,3.2,3,4.8,3
2013/4/24 6:27,3.3,3,3.3,3,4.9,3
2013/4/24 6:28,3.3,3,3.3,3,4.5,3
2013/4/24 6:29,3.4,3,3.4,3,5.1,3
2013/4/24 6:30,3.4,3,3.5,3,5.5,3
2013/4/24 6:31,3.5,3,3.5,3,4.9,2
2013/4/24 6:32,3.4,3,3.5,3,3.7,3
2013/4/24 6:33,3.4,3,3.4,3,5.8,5
2013/4/24 6:34,3.3,3,3.4,3,5,4
2013/4/24 6:35,3.4,3,3.4,3,4.7,3
2013/4/24 6:36,3.4,3,3.4,3,4.7,4
2013/4/24 6:37,3.3,3,3.4,3,3.6,2
2013/4/24 6:38,3.1,3,3.2,3,3.3,3
2013/4/24 6:39,3.1,3,3.1,3,4.4,3
2013/4/24 6:40,2.9,3,3,3,4.4,4
2013/4/24 6:41,2.8,3,2.9,3,4.4,3
2013/4/24 6:42,2.8,3,2.8,3,4.3,3
2013/4/24 6:43,2.6,3,2.8,3,3.5,2
2013/4/24 6:44,2.6,3,2.7,3,5.4,3
2013/4/24 6:45,2.6,3,2.6,3,4.9,4
2013/4/24 6:46,2.5,3,2.6,3,4.4,3
2013/4/24 6:47,2.6,3,2.6,3,3.7,3
2013/4/24 6:48,2.6,3,2.6,3,4.1,3
2013/4/24 6:49,2.5,3,2.6,3,3.3,3
2013/4/24 6:50,2.6,3,2.6,3,4.2,3
2013/4/24 6:51,2.6,3,2.7,3,4.2,3
2013/4/24 6:52,2.7,3,2.7,3,3.9,3
2013/4/24 6:53,2.8,3,2.8,3,4.1,4
2013/4/24 6:54,2.7,3,2.8,3,4.1,3
2013/4/24 6:55,2.7,3,2.7,3,5,3
2013/4/24 6:56,2.7,3,2.8,3,3.8,3
2013/4/24 6:57,2.7,3,2.7,3,4.4,3
2013/4/24 6:58,2.6,3,2.7,3,3.8,3
2013/4/24 6:59,2.6,3,2.7,3,3.2,2
2013/4/24 7:00,2.7,3,2.7,3,5.1,3
2013/4/24 7:01,2.8,3,2.8,3,4.4,3
2013/4/24 7:02,2.8,3,2.8,3,4.3,3
2013/4/24 7:03,2.9,3,2.9,3,5.2,3
2013/4/24 7:04,2.9,3,2.9,3,4.4,3
2013/4/24 7:05,2.9,3,2.9,3,5.4,2
2013/4/24 7:06,3.1,3,3.1,3,5.7,3
2013/4/24 7:07,3.3,3,3.3,3,5,3
2013/4/24 7:08,3.3,3,3.4,3,5.2,3
2013/4/24 7:09,3.4,3,3.4,3,3.8,2
2013/4/24 7:10,3.4,3,3.4,3,5.4,2
2013/4/24 7:11,3.3,3,3.4,3,5.1,2
2013/4/24 7:12,3.3,3,3.3,3,4.1,2
2013/4/24 7:13,3.3,3,3.3,3,4.4,3
2013/4/24 7:14,3.2,2,3.2,3,3.8,3
2013/4/24 7:15,3.2,3,3.2,3,4.7,2
2013/4/24 7:16,3.1,2,3.2,3,4.4,3
2013/4/24 7:17,3,2,3.1,3,4.3,3
2013/4/24 7:18,3,3,3,3,4.9,4
2013/4/24 7:19,3,3,3,3,4.4,3
2013/4/24 7:20,3,3,3,3,4.3,3
2013/4/24 7:21,3,3,3,3,3.9,2
2013/4/24 7:22,3.1,3,3.1,3,5.1,3
2013/4/24 7:23,3,3,3.1,3,4.2,3
2013/4/24 7:24,3.2,3,3.2,2,6.7,3
2013/4/24 7:25,3.3,3,3.3,3,6.4,3
2013/4/24 7:26,3.3,3,3.3,3,5,4
2013/4/24 7:27,3.4,3,3.4,3,5.4,3
2013/4/24 7:28,3.4,3,3.4,3,7.9,3
2013/4/24 7:29,3.6,3,3.6,3,8.1,3
2013/4/24 7:30,3.7,3,3.7,3,6.3,3
2013/4/24 7:31,3.7,3,3.7,3,6.2,3
2013/4/24 7:32,3.8,3,3.8,3,6.2,3
2013/4/24 7:33,3.9,3,3.9,3,5.2,3
2013/4/24 7:34,3.7,4,4,3,6.9,4
2013/4/24 7:35,3.5,4,3.7,3,3.5,3
2013/4/24 7:36,3.5,4,3.5,3,5.4,3
2013/4/24 7:37,3.4,4,3.5,3,4.9,3
2013/4/24 7:38,3.5,4,3.5,3,5.4,3
2013/4/24 7:39,3.3,4,3.4,3,4.7,3
2013/4/24 7:40,3.3,4,3.3,3,5.2,3
2013/4/24 7:41,3.3,4,3.3,3,5,3
2013/4/24 7:42,3.2,4,3.3,3,4.9,5
2013/4/24 7:43,3.2,4,3.3,3,5.6,4
2013/4/24 7:44,3.2,4,3.2,4,4.2,3
2013/4/24 7:45,3.4,4,3.4,4,5,3
2013/4/24 7:46,3.5,4,3.5,4,5.6,5
2013/4/24 7:47,3.5,4,3.5,4,6.2,5
2013/4/24 7:48,3.4,4,3.5,4,4.4,5
2013/4/24 7:49,3.4,4,3.4,4,4.4,4
2013/4/24 7:50,3.4,4,3.4,4,6,4
2013/4/24 7:51,3.4,4,3.4,4,6.2,5
2013/4/24 7:52,3.4,4,3.4,4,4.5,4
2013/4/24 7:53,3.4,4,3.4,4,4.4,5
2013/4/24 7:54,3.2,4,3.3,4,3.3,5
2013/4/24 7:55,3.2,4,3.2,4,4.7,3
2013/4/24 7:56,3.2,4,3.2,4,6,4
2013/4/24 7:57,3.2,4,3.2,4,7.9,3
2013/4/24 7:58,3.1,4,3.2,4,4.1,4
2013/4/24 7:59,3.2,4,3.2,4,5.7,4
2013/4/24 8:00,3.2,4,3.2,4,5.6,5
2013/4/24 8:01,3.1,4,3.2,4,4.5,5
2013/4/24 8:02,3.1,4,3.2,4,4.5,3
2013/4/24 8:03,3.1,4,3.1,4,6.1,5
2013/4/24 8:04,3.3,4,3.3,4,5.6,5
2013/4/24 8:05,3.2,4,3.3,4,4.9,5
2013/4/24 8:06,3.3,5,3.3,4,8.5,5
2013/4/24 8:07,3.5,5,3.5,5,7.7,6
2013/4/24 8:08,3.7,5,3.7,5,9.5,6
2013/4/24 8:09,3.8,5,3.8,5,6.7,5
2013/4/24 8:10,3.7,5,3.7,5,5.1,5
2013/4/24 8:11,3.8,5,3.8,5,7,5
2013/4/24 8:12,3.8,5,3.8,5,3.5,4
2013/4/24 8:13,3.7,5,3.8,5,4.2,3
2013/4/24 8:14,3.7,5,3.7,5,4.5,6
2013/4/24 8:15,3.7,5,3.7,5,3.5,4
2013/4/24 8:16,3.5,5,3.7,5,5.6,5
2013/4/24 8:17,3.4,5,3.5,5,5.2,4
2013/4/24 8:18,3.2,5,3.4,5,3.5,5
2013/4/24 8:19,3.2,5,3.2,5,6,4
2013/4/24 8:20,3.2,5,3.2,5,5,4
2013/4/24 8:21,3.1,5,3.2,5,4.7,6
2013/4/24 8:22,3.2,5,3.2,5,5.1,4
2013/4/24 8:23,3.4,5,3.4,5,5.5,4
2013/4/24 8:24,3.4,5,3.4,5,4.3,5
2013/4/24 8:25,3.4,5,3.4,5,4.1,4
2013/4/24 8:26,3.3,5,3.4,5,4.4,5
2013/4/24 8:27,3.1,4,3.3,5,4.8,5
2013/4/24 8:28,3,4,3.1,5,2.1,5
2013/4/24 8:29,2.9,4,3,5,3.3,5
2013/4/24 8:30,2.8,4,2.9,5,4.9,5
2013/4/24 8:31,2.7,5,2.8,5,3.9,7
2013/4/24 8:32,2.7,5,2.8,5,6,6
2013/4/24 8:33,2.7,5,2.8,5,6.4,6
2013/4/24 8:34,2.6,5,2.7,5,4.1,5
2013/4/24 8:35,2.6,5,2.6,5,4.8,4
2013/4/24 8:36,2.7,5,2.7,5,4.9,5
2013/4/24 8:37,2.8,5,2.8,4,4.2,6
2013/4/24 8:38,2.9,5,2.9,4,3.1,4
2013/4/24 8:39,2.9,5,2.9,4,3.9,5
2013/4/24 8:40,2.9,5,2.9,5,5.5,4
2013/4/24 8:41,3,5,3,5,5.2,5
2013/4/24 8:42,3,5,3,5,5,5
2013/4/24 8:43,2.8,5,2.9,5,3.6,5
2013/4/24 8:44,2.8,5,2.8,5,3.7,5
2013/4/24 8:45,2.8,5,2.8,5,4.1,5
2013/4/24 8:46,2.8,5,2.9,5,5.1,5
2013/4/24 8:47,2.8,5,2.9,5,4.4,6
2013/4/24 8:48,2.8,5,2.9,5,3.5,6
2013/4/24 8:49,2.8,5,2.8,5,3.1,6
2013/4/24 8:50,2.7,5,2.8,5,4.2,4
2013/4/24 8:51,2.7,5,2.7,5,4.1,3
2013/4/24 8:52,2.6,5,2.7,5,3.8,6
2013/4/24 8:53,2.6,5,2.6,5,5.5,3
2013/4/24 8:54,2.8,5,2.8,5,6,4
2013/4/24 8:55,2.8,5,2.9,5,6.8,5
2013/4/24 8:56,2.7,5,2.8,5,3.6,5
2013/4/24 8:57,2.7,5,2.7,5,4.1,6
2013/4/24 8:58,2.9,5,2.9,5,6.3,5
2013/4/24 8:59,2.9,5,2.9,5,4.1,5
2013/4/24 9:00,2.8,5,2.9,5,3.1,6
2013/4/24 9:01,2.7,5,2.8,5,3.3,4
2013/4/24 9:02,2.7,5,2.8,5,3.7,4
2013/4/24 9:03,2.8,5,2.9,5,4.4,6
2013/4/24 9:04,2.7,5,2.8,5,4.2,5
2013/4/24 9:05,2.7,5,2.7,5,4.5,5
2013/4/24 9:06,2.7,5,2.7,5,3.9,6
2013/4/24 9:07,2.7,5,2.7,5,3.5,5
2013/4/24 9:08,2.6,5,2.7,5,4.2,5
2013/4/24 9:09,2.7,5,2.7,5,5.8,6
2013/4/24 9:10,2.8,5,2.8,5,5.5,5
2013/4/24 9:11,3.1,5,3.1,5,7.1,6
2013/4/24 9:12,3.1,5,3.1,5,5.6,5
2013/4/24 9:13,3,5,3.1,5,5.5,5
2013/4/24 9:14,3.1,5,3.1,5,5.7,7
2013/4/24 9:15,3.1,5,3.2,5,6.1,7
2013/4/24 9:16,3.3,5,3.3,5,5.4,5
2013/4/24 9:17,3.4,5,3.4,5,6.1,5
2013/4/24 9:18,3.4,5,3.4,5,4.3,6
2013/4/24 9:19,3.4,5,3.5,5,3.7,6
2013/4/24 9:20,3.4,5,3.4,5,6.4,6
2013/4/24 9:21,3.3,5,3.4,5,5.8,6
2013/4/24 9:22,3.3,5,3.3,5,6.7,6
2013/4/24 9:23,3.5,5,3.5,5,6.4,5
2013/4/24 9:24,3.6,5,3.6,5,7.2,5
2013/4/24 9:25,3.5,5,3.6,5,4.8,6
2013/4/24 9:26,3.3,5,3.5,5,3.3,6
2013/4/24 9:27,3.2,5,3.3,5,4.7,5
2013/4/24 9:28,3.2,5,3.2,5,4.1,5
2013/4/24 9:29,3.3,5,3.3,5,4.9,6
2013/4/24 9:30,3.4,5,3.4,5,5.4,6
2013/4/24 9:31,3.2,5,3.3,5,3.2,4
2013/4/24 9:32,3,5,3.2,5,4.9,4
2013/4/24 9:33,2.9,5,3,5,5,6
2013/4/24 9:34,2.9,5,2.9,5,6.1,6
2013/4/24 9:35,2.8,5,2.9,5,3.3,6
2013/4/24 9:36,2.8,5,2.8,5,3.8,5
2013/4/24 9:37,2.8,5,2.9,5,5.6,5
2013/4/24 9:38,2.9,5,2.9,5,5.4,6
2013/4/24 9:39,2.8,5,2.9,5,3.8,6
2013/4/24 9:40,2.7,5,2.8,5,5,5
2013/4/24 9:41,2.9,5,2.9,5,6.4,5
2013/4/24 9:42,2.9,5,3,5,3.8,3
2013/4/24 9:43,2.8,5,2.9,5,4.8,4
2013/4/24 9:44,2.7,5,2.8,5,3.8,5
2013/4/24 9:45,2.8,5,2.8,5,4.4,4
2013/4/24 9:46,2.9,5,2.9,5,5.7,5
2013/4/24 9:47,3,5,3,5,5.5,5
2013/4/24 9:48,2.8,5,2.9,5,4.4,4
2013/4/24 9:49,3,5,3,5,4.9,5
2013/4/24 9:50,3,5,3,5,5.2,5
2013/4/24 9:51,2.9,5,3,5,4.8,5
2013/4/24 9:52,3,5,3,5,5.4,5
2013/4/24 9:53,3,5,3,5,4.1,5
2013/4/24 9:54,3.1,5,3.1,5,3.9,6
2013/4/24 9:55,3,5,3.1,5,3.7,4
2013/4/24 9:56,3.1,5,3.1,5,6.1,6
2013/4/24 9:57,3,5,3.1,5,5.8,5
2013/4/24 9:58,3.2,5,3.2,5,6.1,6
2013/4/24 9:59,3.2,5,3.3,5,5.7,7
2013/4/24 10:00,3.1,5,3.2,5,4.5,5
2013/4/24 10:01,3,5,3.1,5,2.6,6
2013/4/24 10:02,2.9,5,3,5,3.7,4
2013/4/24 10:03,2.8,5,2.8,5,2.7,5
2013/4/24 10:04,2.7,5,2.7,5,4.7,7
2013/4/24 10:05,2.7,5,2.7,5,3.1,4
2013/4/24 10:06,2.6,5,2.7,5,5.5,6
2013/4/24 10:07,2.9,6,2.9,5,9.2,6
2013/4/24 10:08,3.1,6,3.1,5,7.4,5
2013/4/24 10:09,3.1,5,3.2,5,6.5,6
2013/4/24 10:10,3.4,5,3.4,5,6.7,6
2013/4/24 10:11,3.6,5,3.6,5,5.6,6
2013/4/24 10:12,3.7,6,3.7,6,4.2,5
2013/4/24 10:13,3.8,6,3.8,6,4.7,5
2013/4/24 10:14,3.8,5,3.8,6,3.2,6
2013/4/24 10:15,4,5,4,5,6,6
2013/4/24 10:16,3.8,6,4,5,3.9,4
2013/4/24 10:17,3.4,6,3.8,5,4.7,5
2013/4/24 10:18,3,6,3.4,5,3.3,6
2013/4/24 10:19,2.9,6,3,5,4.7,6
2013/4/24 10:20,2.8,6,2.9,5,7.7,5
2013/4/24 10:21,3,6,3,5,7.9,6
2013/4/24 10:22,2.9,6,3,5,4.9,5
2013/4/24 10:23,3,6,3,5,5.2,5
2013/4/24 10:24,3.1,6,3.1,5,4.9,6
2013/4/24 10:25,3,6,3.1,5,5.2,5
2013/4/24 10:26,3.3,6,3.3,6,6.5,6
2013/4/24 10:27,3.4,6,3.5,6,6.3,6
2013/4/24 10:28,3.3,6,3.4,6,2.1,6
2013/4/24 10:29,3.3,6,3.3,6,3.8,5
2013/4/24 10:30,3,6,3.3,6,3.5,5
2013/4/24 10:31,2.8,5,3,6,4.9,6
2013/4/24 10:32,2.8,5,2.8,6,5.4,5
2013/4/24 10:33,2.8,6,2.8,6,4.9,5
2013/4/24 10:34,2.7,6,2.8,6,2.7,5
2013/4/24 10:35,2.6,6,2.7,6,3.1,5
2013/4/24 10:36,2.3,5,2.6,6,2.6,5
2013/4/24 10:37,2.3,5,2.3,6,4.5,4
2013/4/24 10:38,2.3,5,2.3,6,2.4,2
2013/4/24 10:39,2.4,5,2.4,6,3.7,3
2013/4/24 10:40,2.5,5,2.5,6,3.8,6
2013/4/24 10:41,2.4,5,2.5,5,3.2,4
2013/4/24 10:42,2.3,5,2.4,5,3.5,4
2013/4/24 10:43,2.3,5,2.3,6,5.6,5
2013/4/24 10:44,2.5,4,2.5,6,4.9,4
2013/4/24 10:45,2.7,4,2.7,4,6.4,5
2013/4/24 10:46,2.7,4,2.7,4,3.6,4
2013/4/24 10:47,2.7,4,2.7,4,4.9,4
2013/4/24 10:48,2.9,5,2.9,5,5.1,6
2013/4/24 10:49,3,5,3,5,6.3,6
2013/4/24 10:50,3.2,5,3.2,5,6.2,5
2013/4/24 10:51,3.3,5,3.3,5,5.2,5
2013/4/24 10:52,3.4,5,3.4,5,5.5,5
2013/4/24 10:53,3.2,5,3.4,5,4.7,6
2013/4/24 10:54,3.1,5,3.2,5,4.7,5
2013/4/24 10:55,3,5,3.1,5,3.8,5
2013/4/24 10:56,3,5,3,5,3.9,4
2013/4/24 10:57,3,6,3,5,3.1,6
2013/4/24 10:58,2.8,5,3,5,3,6
2013/4/24 10:59,2.7,5,2.8,5,3.7,4
2013/4/24 11:00,2.5,5,2.7,5,3.2,4
2013/4/24 11:01,2.3,5,2.4,5,2.6,6
2013/4/24 11:02,1.9,5,2.3,5,0.9,7
2013/4/24 11:03,1.9,5,1.9,5,3.2,11
2013/4/24 11:04,1.7,5,1.9,5,3,10
2013/4/24 11:05,1.6,5,1.7,5,1.8,4
2013/4/24 11:06,1.5,5,1.6,5,2,7
2013/4/24 11:07,1.5,5,1.5,6,3.3,5
2013/4/24 11:08,1.6,5,1.6,5,3.9,5
2013/4/24 11:09,1.6,5,1.6,5,4.4,5
2013/4/24 11:10,1.6,5,1.6,5,3.7,5
2013/4/24 11:11,1.7,5,1.7,5,4.2,5
2013/4/24 11:12,1.9,5,1.9,5,3.9,4
2013/4/24 11:13,2.1,4,2.1,5,4.5,4
2013/4/24 11:14,2.2,4,2.2,4,3.2,4
2013/4/24 11:15,2.2,5,2.2,4,2.5,4
2013/4/24 11:16,2.2,5,2.3,5,2.4,6
2013/4/24 11:17,2.2,5,2.2,5,2.9,6
2013/4/24 11:18,2.1,5,2.2,5,3.2,4
2013/4/24 11:19,2,5,2.1,5,3.3,5
2013/4/24 11:20,2.1,5,2.1,5,3.3,2
2013/4/24 11:21,2,4,2.1,5,3.2,3
2013/4/24 11:22,2,4,2,5,2.2,3
2013/4/24 11:23,1.8,4,1.9,5,2.5,4
2013/4/24 11:24,1.9,4,1.9,5,3.1,4
2013/4/24 11:25,1.9,4,1.9,5,3.1,3
2013/4/24 11:26,2,4,2,5,3.7,4
2013/4/24 11:27,2.1,4,2.1,5,3.7,3
2013/4/24 11:28,2.2,4,2.2,4,4.5,5
2013/4/24 11:29,2.2,4,2.2,4,3.8,4
2013/4/24 11:30,2.1,4,2.2,4,3,3
2013/4/24 11:31,2.2,4,2.2,4,4.3,5
2013/4/24 11:32,2.3,4,2.3,4,3.5,5
2013/4/24 11:33,2.3,4,2.3,4,3.2,5
2013/4/24 11:34,2.2,4,2.3,4,2.7,4
2013/4/24 11:35,2.1,4,2.2,4,2.2,3
2013/4/24 11:36,2,4,2.1,4,2,4
2013/4/24 11:37,1.9,4,2,4,2.5,2
2013/4/24 11:38,1.8,3,1.9,4,2.6,3
2013/4/24 11:39,1.8,3,1.8,4,4.1,5
2013/4/24 11:40,1.7,3,1.8,4,2,3
2013/4/24 11:41,1.6,3,1.7,4,2.5,4
2013/4/24 11:42,1.5,3,1.6,4,2,4
2013/4/24 11:43,1.5,3,1.5,4,2.9,3
2013/4/24 11:44,1.6,3,1.6,4,3.8,5
2013/4/24 11:45,1.7,3,1.7,4,2.9,7
2013/4/24 11:46,1.9,4,1.9,4,3.7,4
2013/4/24 11:47,1.9,4,1.9,4,2.7,5
2013/4/24 11:48,2,4,2,4,3.2,3